Location: Cedar Springs
(43.2230°N, 85.5510°W)
Time: 00:54:58
(UTC-05:00)

Cosmos 2278 Rocket - Visible Passes

Search period start: 14 February 2016 00:00
Search period end: 24 February 2016 00:00
Orbit: 842 x 845 km, 71.0° (Epoch: 12 February)

Date Brightness Start Highest point End Pass type
(mag) Time Alt. Az. Time Alt. Az. Time Alt. Az.
14 Feb 5.1 06:02:16 10° SE 06:05:56 18° E 06:09:37 10° ENE visible
15 Feb 5.1 05:47:54 10° SE 05:51:26 17° E 05:54:59 10° ENE visible
16 Feb 5.1 05:33:34 10° SE 05:36:57 16° E 05:40:20 10° ENE visible
17 Feb 5.1 05:19:14 10° SE 05:22:27 16° E 05:25:40 10° ENE visible
17 Feb 2.2 07:00:09 10° SSW 07:05:48 76° WNW 07:11:30 10° NNE visible
18 Feb 5.1 05:04:55 10° SE 05:07:57 15° E 05:11:00 10° ENE visible
18 Feb 2.2 06:45:37 10° SSW 06:51:17 79° WNW 06:56:59 10° NNE visible
19 Feb 5.0 04:50:36 10° SE 04:53:28 14° E 04:56:19 10° ENE visible
19 Feb 2.2 06:31:05 10° SSW 06:36:45 82° WNW 06:42:27 10° NNE visible
20 Feb 5.0 04:36:20 10° SE 04:38:58 13° E 04:41:36 10° ENE visible
20 Feb 2.2 06:16:33 10° SSW 06:22:13 85° WNW 06:27:56 10° NNE visible
21 Feb 5.0 04:22:05 10° ESE 04:24:28 13° E 04:26:52 10° ENE visible
21 Feb 2.2 06:02:01 10° SSW 06:07:41 88° WNW 06:13:24 10° NNE visible
22 Feb 5.0 04:07:52 10° ESE 04:09:58 12° E 04:12:06 10° ENE visible
22 Feb 2.2 05:47:30 10° SSW 05:53:10 88° ESE 05:58:51 10° NNE visible
23 Feb 5.0 03:53:42 10° ESE 03:55:29 11° E 03:57:17 10° ENE visible
23 Feb 2.2 05:34:08 17° SSW 05:38:38 85° ESE 05:44:20 10° NNE visible
